This is the latest recevied weather packets stored in our database for station/object KB7KFC-3. If no packets are shown the sender has not sent any weather packets the latest 10 day(s).
| Time | Temp. | Humidity | Pressure | Rain* | Wind** | Luminosity | Snow |
|---|---|---|---|---|---|---|---|
| 1778081285 | 19.44° C | 38% | 1017.6 hPa | 0 mm | - | - | - |
| 1778080745 | 18.89° C | 35% | 1017.6 hPa | 0 mm | - | - | - |
| 1778077504 | 16.11° C | 44% | 1017.3 hPa | 0 mm | - | - | - |
| 1778076965 | 15.56° C | 46% | 1017.1 hPa | 0 mm | - | - | - |
| 1778076245 | 15° C | 51% | 1017 hPa | 0 mm | - | - | - |
| 1778074624 | 13.89° C | 46% | 1016.7 hPa | 0 mm | - | - | - |
| 1778074444 | 13.89° C | 46% | 1016.8 hPa | 0 mm | - | - | - |
| 1778074264 | 13.89° C | 47% | 1016.7 hPa | 0 mm | - | - | - |
| 1778074084 | 13.89° C | 47% | 1016.7 hPa | 0 mm | - | - | - |
| 1778073363 | 13.33° C | 49% | 1016.4 hPa | 0 mm | - | - | - |
| 1778073185 | 13.33° C | 47% | 1016.4 hPa | 0 mm | - | - | - |
| 1778072464 | 13.33° C | 46% | 1016.3 hPa | 0 mm | - | - | - |
| 1778071025 | 13.33° C | 49% | 1016 hPa | 0 mm | - | - | - |
| 1778070845 | 13.33° C | 50% | 1015.9 hPa | 0 mm | - | - | - |
| 1778070665 | 13.33° C | 49% | 1015.9 hPa | 0 mm | - | - | - |
| 1778069945 | 13.33° C | 48% | 1015.8 hPa | 0 mm | - | - | - |
| 1778069765 | 13.33° C | 49% | 1015.8 hPa | 0 mm | - | - | - |
| 1778069584 | 13.33° C | 52% | 1015.8 hPa | 0 mm | - | - | - |
| 1778069405 | 13.33° C | 50% | 1015.7 hPa | 0 mm | - | - | - |
| 1778066705 | 13.89° C | 50% | 1015.5 hPa | 0 mm | - | - | - |
| 1778065264 | 13.89° C | 47% | 1015.5 hPa | 0 mm | - | - | - |
| 1778063824 | 13.89° C | 49% | 1015.4 hPa | 0 mm | - | - | - |
| 1778063645 | 13.89° C | 48% | 1015.3 hPa | 0 mm | - | - | - |
| 1778063464 | 13.89° C | 49% | 1015.2 hPa | 0 mm | - | - | - |
| 1778062743 | 13.89° C | 47% | 1015.1 hPa | 0 mm | - | - | - |
* Rain latest hour (hover to see other rain measurements)
** Current wind speed in m/s (hover to see current wind gust speed)